Time,TemperatureF,DewpointF,PressureIn,WindDirection,WindDirectionDegrees,WindSpeedMPH,WindSpeedGustMPH,Humidity,HourlyPrecipIn,Conditions,Clouds,dailyrainin,SolarRadiationWatts/m^2,SoftwareType,DateUTC
2013-01-27 00:04:00,39.5,36.8,30.05,SSW,201,4.0,5.0,90,0.00,,,0.00,0,Wunderground v.1.15,2013-01-27 08:04:00,
2013-01-27 00:10:00,39.5,36.8,30.05,SSW,201,4.0,4.0,90,0.00,,,0.00,0,Wunderground v.1.15,2013-01-27 08:10:00,
2013-01-27 00:16:00,39.5,36.8,30.05,SSW,202,3.0,5.0,90,0.00,,,0.00,0,Wunderground v.1.15,2013-01-27 08:16:00,
2013-01-27 00:22:00,39.6,37.2,30.05,SSW,202,3.0,4.0,91,0.00,,,0.00,0,Wunderground v.1.15,2013-01-27 08:22:00,
2013-01-27 00:28:00,39.6,36.9,30.05,SSW,202,3.0,4.0,90,0.00,,,0.00,0,Wunderground v.1.15,2013-01-27 08:28:00,
2013-01-27 00:34:00,39.6,36.9,30.05,SSW,202,2.0,3.0,90,0.00,,,0.00,0,Wunderground v.1.15,2013-01-27 08:34:00,
2013-01-27 00:39:00,39.6,36.9,30.05,SSW,202,2.0,3.0,90,0.00,,,0.00,0,Wunderground v.1.15,2013-01-27 08:39:00,
2013-01-27 00:45:00,39.5,36.8,30.05,SSW,194,3.0,4.0,90,0.00,,,0.00,0,Wunderground v.1.15,2013-01-27 08:45:00,
2013-01-27 00:51:00,39.6,37.2,30.05,South,180,6.0,6.0,91,0.00,,,0.00,0,Wunderground v.1.15,2013-01-27 08:51:00,
2013-01-27 00:57:00,39.7,37.3,30.05,SSW,199,3.0,8.0,91,0.00,,,0.00,0,Wunderground v.1.15,2013-01-27 08:57:00,
2013-01-27 01:03:00,39.7,37.3,30.05,SSW,199,6.0,6.0,91,0.00,,,0.00,0,Wunderground v.1.15,2013-01-27 09:03:00,
2013-01-27 01:09:00,39.7,37.3,30.05,South,185,6.0,6.0,91,0.00,,,0.00,0,Wunderground v.1.15,2013-01-27 09:09:00,
2013-01-27 01:15:00,39.7,37.3,30.05,SSW,194,5.0,6.0,91,0.00,,,0.00,0,Wunderground v.1.15,2013-01-27 09:15:00,
2013-01-27 01:21:00,39.6,37.2,30.05,SSW,202,5.0,5.0,91,0.00,,,0.00,0,Wunderground v.1.15,2013-01-27 09:21:00,
2013-01-27 01:26:00,39.5,37.1,30.04,SSW,202,4.0,6.0,91,0.00,,,0.00,0,Wunderground v.1.15,2013-01-27 09:26:00,
2013-01-27 01:32:00,39.5,37.1,30.05,SSW,199,6.0,6.0,91,0.00,,,0.00,0,Wunderground v.1.15,2013-01-27 09:32:00,
2013-01-27 01:38:00,39.5,37.1,30.05,South,182,5.0,9.0,91,0.00,,,0.00,0,Wunderground v.1.15,2013-01-27 09:38:00,
2013-01-27 01:43:00,39.5,37.1,30.05,South,183,4.0,5.0,91,0.00,,,0.00,0,Wunderground v.1.15,2013-01-27 09:43:00,
2013-01-27 01:49:00,39.4,37.0,30.05,South,187,3.0,5.0,91,0.00,,,0.00,0,Wunderground v.1.15,2013-01-27 09:49:00,
2013-01-27 01:54:00,39.3,36.9,30.05,South,180,5.0,6.0,91,0.00,,,0.00,0,Wunderground v.1.15,2013-01-27 09:54:00,
2013-01-27 02:00:00,39.5,37.1,30.05,SSW,196,4.0,5.0,91,0.00,,,0.00,0,Wunderground v.1.15,2013-01-27 10:00:00,
2013-01-27 02:05:00,39.4,37.0,30.05,SSW,197,8.0,8.0,91,0.00,,,0.00,0,Wunderground v.1.15,2013-01-27 10:05:00,
2013-01-27 02:10:00,39.5,37.1,30.05,SSW,195,6.0,7.0,91,0.00,,,0.00,0,Wunderground v.1.15,2013-01-27 10:10:00,
2013-01-27 02:15:00,39.5,37.1,30.05,SSW,193,5.0,8.0,91,0.00,,,0.00,0,Wunderground v.1.15,2013-01-27 10:15:00,
2013-01-27 02:20:00,39.6,37.2,30.05,South,175,10.0,10.0,91,0.00,,,0.00,0,Wunderground v.1.15,2013-01-27 10:20:00,
2013-01-27 02:25:00,39.6,37.2,30.06,South,191,7.0,10.0,91,0.00,,,0.00,0,Wunderground v.1.15,2013-01-27 10:25:00,
2013-01-27 02:30:00,39.5,37.1,30.06,SSW,198,5.0,6.0,91,0.00,,,0.00,0,Wunderground v.1.15,2013-01-27 10:30:00,
2013-01-27 02:35:00,39.5,37.1,30.06,SSW,202,4.0,7.0,91,0.00,,,0.00,0,Wunderground v.1.15,2013-01-27 10:35:00,
2013-01-27 02:40:00,39.4,37.0,30.06,SSW,192,5.0,5.0,91,0.00,,,0.00,0,Wunderground v.1.15,2013-01-27 10:40:00,
2013-01-27 02:45:00,39.4,37.0,30.06,SSW,194,6.0,7.0,91,0.00,,,0.00,0,Wunderground v.1.15,2013-01-27 10:45:00,
2013-01-27 02:50:00,39.5,37.1,30.06,SSW,192,6.0,6.0,91,0.00,,,0.00,0,Wunderground v.1.15,2013-01-27 10:50:00,
2013-01-27 02:55:00,39.4,37.0,30.06,South,184,5.0,6.0,91,0.00,,,0.00,0,Wunderground v.1.15,2013-01-27 10:55:00,
2013-01-27 03:00:00,39.3,36.9,30.05,South,184,4.0,5.0,91,0.00,,,0.00,0,Wunderground v.1.15,2013-01-27 11:00:00,
2013-01-27 03:05:00,39.2,36.8,30.06,South,184,3.0,5.0,91,0.00,,,0.00,0,Wunderground v.1.15,2013-01-27 11:05:00,
2013-01-27 03:11:00,39.2,36.8,30.05,South,184,4.0,5.0,91,0.00,,,0.00,0,Wunderground v.1.15,2013-01-27 11:11:00,
2013-01-27 03:16:00,39.2,36.8,30.06,SSW,195,3.0,6.0,91,0.00,,,0.00,0,Wunderground v.1.15,2013-01-27 11:16:00,
2013-01-27 03:20:00,39.2,36.8,30.05,SW,214,4.0,5.0,91,0.00,,,0.00,0,Wunderground v.1.15,2013-01-27 11:20:00,
2013-01-27 03:25:00,39.3,36.9,30.06,SSW,204,5.0,8.0,91,0.00,,,0.00,0,Wunderground v.1.15,2013-01-27 11:25:00,
2013-01-27 03:31:00,39.2,36.8,30.06,SSW,206,7.0,7.0,91,0.00,,,0.00,0,Wunderground v.1.15,2013-01-27 11:31:00,
2013-01-27 03:36:00,39.2,36.8,30.06,SSW,207,5.0,8.0,91,0.00,,,0.00,0,Wunderground v.1.15,2013-01-27 11:36:00,
2013-01-27 03:41:00,39.2,36.8,30.06,SSW,212,6.0,6.0,91,0.00,,,0.00,0,Wunderground v.1.15,2013-01-27 11:41:00,
2013-01-27 03:46:00,39.3,36.9,30.05,SSW,199,6.0,9.0,91,0.00,,,0.00,0,Wunderground v.1.15,2013-01-27 11:46:00,
2013-01-27 03:51:00,39.3,36.9,30.06,SSW,208,6.0,8.0,91,0.00,,,0.00,0,Wunderground v.1.15,2013-01-27 11:51:00,
2013-01-27 03:56:00,39.3,36.9,30.06,SSW,192,6.0,9.0,91,0.00,,,0.00,0,Wunderground v.1.15,2013-01-27 11:56:00,
2013-01-27 04:01:00,39.2,36.8,30.06,South,191,5.0,6.0,91,0.00,,,0.00,0,Wunderground v.1.15,2013-01-27 12:01:00,
2013-01-27 04:06:00,39.2,36.8,30.06,SSW,204,5.0,8.0,91,0.00,,,0.00,0,Wunderground v.1.15,2013-01-27 12:06:00,
2013-01-27 04:11:00,39.1,36.7,30.06,SSW,207,3.0,5.0,91,0.00,,,0.00,0,Wunderground v.1.15,2013-01-27 12:11:00,
2013-01-27 04:16:00,39.1,36.7,30.06,SSW,207,4.0,6.0,91,0.00,,,0.00,0,Wunderground v.1.15,2013-01-27 12:16:00,
2013-01-27 04:21:00,39.1,36.7,30.06,SSW,207,6.0,6.0,91,0.00,,,0.00,0,Wunderground v.1.15,2013-01-27 12:21:00,
2013-01-27 04:26:00,39.0,36.6,30.06,SSW,206,5.0,7.0,91,0.00,,,0.00,0,Wunderground v.1.15,2013-01-27 12:26:00,
2013-01-27 04:31:00,39.0,36.6,30.06,SSW,196,6.0,8.0,91,0.00,,,0.00,0,Wunderground v.1.15,2013-01-27 12:31:00,
2013-01-27 04:36:00,39.1,36.7,30.06,SSW,205,4.0,8.0,91,0.00,,,0.00,0,Wunderground v.1.15,2013-01-27 12:36:00,
2013-01-27 04:41:00,39.1,36.7,30.06,SSW,198,7.0,8.0,91,0.00,,,0.00,0,Wunderground v.1.15,2013-01-27 12:41:00,
2013-01-27 04:46:00,39.1,36.7,30.06,SSW,192,6.0,8.0,91,0.00,,,0.00,0,Wunderground v.1.15,2013-01-27 12:46:00,
2013-01-27 04:51:00,39.0,36.6,30.06,SSW,203,5.0,6.0,91,0.00,,,0.00,0,Wunderground v.1.15,2013-01-27 12:51:00,
2013-01-27 04:56:00,39.0,36.6,30.06,SSW,196,4.0,7.0,91,0.00,,,0.00,0,Wunderground v.1.15,2013-01-27 12:56:00,
2013-01-27 05:01:00,38.9,36.5,30.06,SSW,196,6.0,6.0,91,0.00,,,0.00,0,Wunderground v.1.15,2013-01-27 13:01:00,
2013-01-27 05:06:00,38.9,36.5,30.06,SSW,198,7.0,8.0,91,0.00,,,0.00,0,Wunderground v.1.15,2013-01-27 13:06:00,
2013-01-27 05:11:00,38.9,36.2,30.06,SSW,194,5.0,7.0,90,0.00,,,0.00,0,Wunderground v.1.15,2013-01-27 13:11:00,
2013-01-27 05:16:00,38.9,36.2,30.06,SSW,192,6.0,8.0,90,0.00,,,0.00,0,Wunderground v.1.15,2013-01-27 13:16:00,
2013-01-27 05:21:00,38.9,36.2,30.06,SSW,195,6.0,7.0,90,0.00,,,0.00,0,Wunderground v.1.15,2013-01-27 13:21:00,
2013-01-27 05:26:00,38.9,36.2,30.06,SSW,196,6.0,7.0,90,0.00,,,0.00,0,Wunderground v.1.15,2013-01-27 13:26:00,
2013-01-27 05:31:00,38.8,36.1,30.06,South,189,5.0,6.0,90,0.00,,,0.00,0,Wunderground v.1.15,2013-01-27 13:31:00,
2013-01-27 05:36:00,38.8,36.1,30.06,SSW,200,6.0,7.0,90,0.00,,,0.00,0,Wunderground v.1.15,2013-01-27 13:36:00,
2013-01-27 05:41:00,38.8,36.1,30.06,SSW,212,5.0,6.0,90,0.00,,,0.00,0,Wunderground v.1.15,2013-01-27 13:41:00,
2013-01-27 05:46:00,38.8,36.1,30.06,SSW,200,4.0,7.0,90,0.00,,,0.00,0,Wunderground v.1.15,2013-01-27 13:46:00,
2013-01-27 05:51:00,38.8,36.1,30.06,SSW,201,5.0,7.0,90,0.00,,,0.00,0,Wunderground v.1.15,2013-01-27 13:51:00,
2013-01-27 05:56:00,38.7,36.0,30.06,SSW,201,6.0,7.0,90,0.00,,,0.00,0,Wunderground v.1.15,2013-01-27 13:56:00,
2013-01-27 06:01:00,38.7,36.0,30.06,SSW,194,5.0,7.0,90,0.00,,,0.00,0,Wunderground v.1.15,2013-01-27 14:01:00,
2013-01-27 06:06:00,38.6,36.2,30.06,SSW,200,5.0,8.0,91,0.00,,,0.00,0,Wunderground v.1.15,2013-01-27 14:06:00,
2013-01-27 06:11:00,38.6,36.2,30.06,SSW,206,5.0,6.0,91,0.00,,,0.00,0,Wunderground v.1.15,2013-01-27 14:11:00,
2013-01-27 06:16:00,38.6,36.2,30.06,SSW,206,7.0,7.0,91,0.00,,,0.00,0,Wunderground v.1.15,2013-01-27 14:16:00,
2013-01-27 06:21:00,38.6,35.9,30.06,SSW,199,4.0,7.0,90,0.00,,,0.00,0,Wunderground v.1.15,2013-01-27 14:21:00,
2013-01-27 06:26:00,38.6,36.2,30.06,SSW,202,6.0,7.0,91,0.00,,,0.00,0,Wunderground v.1.15,2013-01-27 14:26:00,
2013-01-27 06:31:00,38.6,35.9,30.06,SSW,200,4.0,5.0,90,0.00,,,0.00,0,Wunderground v.1.15,2013-01-27 14:31:00,
2013-01-27 06:36:00,38.5,36.1,30.06,SSW,200,6.0,6.0,91,0.00,,,0.00,0,Wunderground v.1.15,2013-01-27 14:36:00,
2013-01-27 06:41:00,38.3,35.9,30.06,SSW,200,4.0,5.0,91,0.00,,,0.00,0,Wunderground v.1.15,2013-01-27 14:41:00,
2013-01-27 06:46:00,38.1,35.7,30.06,SSW,200,6.0,6.0,91,0.00,,,0.00,0,Wunderground v.1.15,2013-01-27 14:46:00,
2013-01-27 06:51:00,38.1,35.7,30.06,SSW,200,5.0,6.0,91,0.00,,,0.00,0,Wunderground v.1.15,2013-01-27 14:51:00,
2013-01-27 06:56:00,37.9,35.5,30.06,SSW,200,6.0,7.0,91,0.00,,,0.00,0,Wunderground v.1.15,2013-01-27 14:56:00,
2013-01-27 07:01:00,37.8,35.4,30.06,SSW,199,4.0,6.0,91,0.00,,,0.00,0,Wunderground v.1.15,2013-01-27 15:01:00,
2013-01-27 07:06:00,37.9,35.5,30.06,SSW,199,5.0,7.0,91,0.00,,,0.00,0,Wunderground v.1.15,2013-01-27 15:06:00,
2013-01-27 07:11:00,37.8,35.4,30.06,South,190,5.0,5.0,91,0.00,,,0.00,0,Wunderground v.1.15,2013-01-27 15:11:00,
2013-01-27 07:16:00,37.7,35.3,30.06,South,190,5.0,6.0,91,0.00,,,0.00,0,Wunderground v.1.15,2013-01-27 15:16:00,
2013-01-27 07:21:00,37.6,34.9,30.07,SSW,201,4.0,5.0,90,0.00,,,0.00,0,Wunderground v.1.15,2013-01-27 15:21:00,
2013-01-27 07:26:00,37.8,35.1,30.07,SSW,201,3.0,6.0,90,0.00,,,0.00,0,Wunderground v.1.15,2013-01-27 15:26:00,
2013-01-27 07:31:00,37.9,35.2,30.07,SSW,204,3.0,4.0,90,0.00,,,0.00,0,Wunderground v.1.15,2013-01-27 15:31:00,
2013-01-27 07:36:00,37.9,35.2,30.07,SSW,209,3.0,5.0,90,0.00,,,0.00,0,Wunderground v.1.15,2013-01-27 15:36:00,
2013-01-27 07:41:00,37.9,35.2,30.07,SSW,209,3.0,3.0,90,0.00,,,0.00,0,Wunderground v.1.15,2013-01-27 15:41:00,
2013-01-27 07:46:00,37.7,35.3,30.07,SSW,209,3.0,5.0,91,0.00,,,0.00,5,Wunderground v.1.15,2013-01-27 15:46:00,
2013-01-27 07:51:00,37.6,35.2,30.07,SSW,205,3.0,5.0,91,0.00,,,0.00,9,Wunderground v.1.15,2013-01-27 15:51:00,
2013-01-27 07:56:00,37.5,34.8,30.07,SSW,205,2.0,5.0,90,0.00,,,0.00,12,Wunderground v.1.15,2013-01-27 15:56:00,
2013-01-27 08:01:00,37.6,34.9,30.08,SSW,205,2.0,3.0,90,0.00,,,0.00,18,Wunderground v.1.15,2013-01-27 16:01:00,
2013-01-27 08:06:00,37.6,34.9,30.07,SSW,205,2.0,4.0,90,0.00,,,0.00,21,Wunderground v.1.15,2013-01-27 16:06:00,
2013-01-27 08:11:00,37.6,34.9,30.07,SSW,205,2.0,3.0,90,0.00,,,0.00,25,Wunderground v.1.15,2013-01-27 16:11:00,
2013-01-27 08:16:00,37.6,34.9,30.08,SSW,205,3.0,3.0,90,0.00,,,0.00,32,Wunderground v.1.15,2013-01-27 16:16:00,
2013-01-27 08:21:00,37.6,34.9,30.08,SSW,205,2.0,4.0,90,0.00,,,0.01,7,Wunderground v.1.15,2013-01-27 16:21:00,
2013-01-27 08:26:00,37.6,34.9,30.08,WSW,256,3.0,5.0,90,0.00,,,0.01,42,Wunderground v.1.15,2013-01-27 16:26:00,
2013-01-27 08:31:00,37.4,34.7,30.08,SSW,208,4.0,4.0,90,0.00,,,0.01,44,Wunderground v.1.15,2013-01-27 16:31:00,
2013-01-27 08:36:00,37.3,34.6,30.08,SSW,208,2.0,4.0,90,0.00,,,0.01,46,Wunderground v.1.15,2013-01-27 16:36:00,
2013-01-27 08:41:00,37.2,34.5,30.08,SSW,207,4.0,4.0,90,0.00,,,0.01,47,Wunderground v.1.15,2013-01-27 16:41:00,
2013-01-27 08:46:00,37.5,34.8,30.08,South,189,4.0,6.0,90,0.00,,,0.01,49,Wunderground v.1.15,2013-01-27 16:46:00,
2013-01-27 08:51:00,37.7,35.0,30.08,South,189,3.0,4.0,90,0.00,,,0.01,62,Wunderground v.1.15,2013-01-27 16:51:00,
2013-01-27 08:56:00,37.9,35.2,30.08,South,189,3.0,5.0,90,0.00,,,0.01,81,Wunderground v.1.15,2013-01-27 16:56:00,
2013-01-27 09:01:00,38.1,35.4,30.08,South,189,3.0,4.0,90,0.00,,,0.01,100,Wunderground v.1.15,2013-01-27 17:01:00,
2013-01-27 09:06:00,38.3,35.6,30.08,South,189,3.0,5.0,90,0.00,,,0.01,109,Wunderground v.1.15,2013-01-27 17:06:00,
2013-01-27 09:11:00,38.7,36.3,30.08,South,189,4.0,4.0,91,0.00,,,0.01,104,Wunderground v.1.15,2013-01-27 17:11:00,
2013-01-27 09:16:00,38.9,36.5,30.09,South,189,5.0,6.0,91,0.00,,,0.01,120,Wunderground v.1.15,2013-01-27 17:16:00,
2013-01-27 09:21:00,39.1,36.7,30.09,South,189,5.0,5.0,91,0.00,,,0.01,127,Wunderground v.1.15,2013-01-27 17:21:00,
2013-01-27 09:26:00,39.3,37.2,30.09,South,189,3.0,5.0,92,0.00,,,0.01,134,Wunderground v.1.15,2013-01-27 17:26:00,
2013-01-27 09:31:00,39.6,37.5,30.09,South,188,5.0,6.0,92,0.00,,,0.01,185,Wunderground v.1.15,2013-01-27 17:31:00,
2013-01-27 09:36:00,39.8,37.7,30.09,South,188,3.0,6.0,92,0.00,,,0.01,142,Wunderground v.1.15,2013-01-27 17:36:00,
2013-01-27 09:41:00,39.9,38.0,30.09,SSW,192,7.0,8.0,93,0.00,,,0.01,141,Wunderground v.1.15,2013-01-27 17:41:00,
2013-01-27 09:46:00,40.1,38.2,30.09,SSE,165,5.0,8.0,93,0.00,,,0.01,130,Wunderground v.1.15,2013-01-27 17:46:00,
2013-01-27 09:51:00,40.2,38.3,30.08,SSW,198,7.0,9.0,93,0.00,,,0.01,127,Wunderground v.1.15,2013-01-27 17:51:00,
2013-01-27 09:56:00,40.3,38.4,30.09,South,169,6.0,11.0,93,0.00,,,0.01,121,Wunderground v.1.15,2013-01-27 17:56:00,
2013-01-27 10:01:00,40.3,38.4,30.09,SSE,164,7.0,9.0,93,0.00,,,0.01,120,Wunderground v.1.15,2013-01-27 18:01:00,
2013-01-27 10:06:00,40.4,38.5,30.09,South,176,8.0,9.0,93,0.00,,,0.01,114,Wunderground v.1.15,2013-01-27 18:06:00,
2013-01-27 10:11:00,40.3,38.4,30.09,SSW,202,10.0,11.0,93,0.00,,,0.01,111,Wunderground v.1.15,2013-01-27 18:11:00,
2013-01-27 10:16:00,40.3,38.4,30.09,SSW,198,9.0,13.0,93,0.00,,,0.01,100,Wunderground v.1.15,2013-01-27 18:16:00,
2013-01-27 10:21:00,40.1,38.2,30.09,SSW,201,8.0,10.0,93,0.00,,,0.01,67,Wunderground v.1.15,2013-01-27 18:21:00,
2013-01-27 10:26:00,40.0,38.1,30.09,SSW,211,6.0,11.0,93,0.00,,,0.01,63,Wunderground v.1.15,2013-01-27 18:26:00,
2013-01-27 10:31:00,39.9,38.0,30.09,SSW,200,6.0,8.0,93,0.00,,,0.01,90,Wunderground v.1.15,2013-01-27 18:31:00,
2013-01-27 10:36:00,40.0,38.1,30.09,SSW,198,8.0,8.0,93,0.00,,,0.01,105,Wunderground v.1.15,2013-01-27 18:36:00,
2013-01-27 10:41:00,40.1,38.2,30.09,South,187,6.0,6.0,93,0.00,,,0.01,102,Wunderground v.1.15,2013-01-27 18:41:00,
2013-01-27 10:46:00,40.1,38.2,30.09,SSW,193,8.0,11.0,93,0.00,,,0.01,93,Wunderground v.1.15,2013-01-27 18:46:00,
2013-01-27 10:51:00,40.1,38.2,30.10,SSW,194,5.0,6.0,93,0.00,,,0.01,88,Wunderground v.1.15,2013-01-27 18:51:00,
2013-01-27 10:56:00,40.2,38.3,30.09,South,173,5.0,7.0,93,0.00,,,0.01,98,Wunderground v.1.15,2013-01-27 18:56:00,
2013-01-27 11:01:00,40.4,38.3,30.09,South,175,6.0,8.0,92,0.00,,,0.01,120,Wunderground v.1.15,2013-01-27 19:01:00,
2013-01-27 11:06:00,40.5,38.4,30.09,SSW,202,5.0,9.0,92,0.00,,,0.01,130,Wunderground v.1.15,2013-01-27 19:06:00,
2013-01-27 11:11:00,40.7,38.8,30.09,SSW,199,6.0,7.0,93,0.00,,,0.01,130,Wunderground v.1.15,2013-01-27 19:11:00,
2013-01-27 11:16:00,40.7,38.8,30.09,South,182,4.0,7.0,93,0.00,,,0.01,116,Wunderground v.1.15,2013-01-27 19:16:00,
2013-01-27 11:21:00,40.8,38.9,30.09,South,190,4.0,6.0,93,0.00,,,0.01,104,Wunderground v.1.15,2013-01-27 19:21:00,
2013-01-27 11:26:00,40.8,38.9,30.08,South,191,5.0,10.0,93,0.00,,,0.01,102,Wunderground v.1.15,2013-01-27 19:26:00,
2013-01-27 11:31:00,40.8,38.9,30.08,SSW,193,9.0,12.0,93,0.00,,,0.01,93,Wunderground v.1.15,2013-01-27 19:31:00,
2013-01-27 11:36:00,40.8,38.9,30.08,South,180,9.0,12.0,93,0.00,,,0.01,93,Wunderground v.1.15,2013-01-27 19:36:00,
2013-01-27 11:41:00,40.7,38.8,30.08,South,189,8.0,12.0,93,0.00,,,0.01,76,Wunderground v.1.15,2013-01-27 19:41:00,
2013-01-27 11:46:00,40.7,38.8,30.08,SSW,195,6.0,12.0,93,0.00,,,0.01,63,Wunderground v.1.15,2013-01-27 19:46:00,
2013-01-27 11:51:00,40.6,38.7,30.08,South,187,7.0,9.0,93,0.00,,,0.02,69,Wunderground v.1.15,2013-01-27 19:51:00,
2013-01-27 11:56:00,40.6,38.7,30.07,South,180,7.0,10.0,93,0.00,,,0.02,90,Wunderground v.1.15,2013-01-27 19:56:00,
2013-01-27 12:01:00,40.6,38.7,30.07,SSW,196,7.0,10.0,93,0.00,,,0.02,109,Wunderground v.1.15,2013-01-27 20:01:00,
2013-01-27 12:06:00,40.7,38.8,30.07,SSW,202,9.0,13.0,93,0.00,,,0.02,114,Wunderground v.1.15,2013-01-27 20:06:00,
2013-01-27 12:11:00,40.7,38.8,30.07,South,182,4.0,11.0,93,0.00,,,0.02,102,Wunderground v.1.15,2013-01-27 20:11:00,
2013-01-27 12:16:00,40.7,38.8,30.07,SSW,193,9.0,11.0,93,0.00,,,0.02,98,Wunderground v.1.15,2013-01-27 20:16:00,
2013-01-27 12:21:00,40.6,38.5,30.06,South,181,8.0,13.0,92,0.00,,,0.02,65,Wunderground v.1.15,2013-01-27 20:21:00,
2013-01-27 12:26:00,40.5,38.4,30.06,South,181,9.0,14.0,92,0.00,,,0.02,56,Wunderground v.1.15,2013-01-27 20:26:00,
2013-01-27 12:31:00,40.4,38.3,30.06,SSW,205,13.0,16.0,92,0.00,,,0.02,67,Wunderground v.1.15,2013-01-27 20:31:00,
2013-01-27 12:36:00,40.4,38.3,30.06,SSW,211,7.0,16.0,92,0.00,,,0.02,60,Wunderground v.1.15,2013-01-27 20:36:00,
2013-01-27 12:41:00,40.1,38.2,30.06,South,178,8.0,14.0,93,0.00,,,0.02,62,Wunderground v.1.15,2013-01-27 20:41:00,
2013-01-27 12:46:00,40.0,38.1,30.06,South,175,9.0,14.0,93,0.00,,,0.02,67,Wunderground v.1.15,2013-01-27 20:46:00,
2013-01-27 12:51:00,39.7,37.8,30.05,SSW,198,7.0,12.0,93,0.00,,,0.03,69,Wunderground v.1.15,2013-01-27 20:51:00,
2013-01-27 12:56:00,39.6,37.7,30.05,South,186,8.0,13.0,93,0.00,,,0.03,77,Wunderground v.1.15,2013-01-27 20:56:00,
2013-01-27 13:01:00,39.6,37.7,30.05,South,182,7.0,13.0,93,0.00,,,0.03,63,Wunderground v.1.15,2013-01-27 21:01:00,
2013-01-27 13:06:00,39.6,37.7,30.05,SSW,196,11.0,14.0,93,0.00,,,0.03,62,Wunderground v.1.15,2013-01-27 21:06:00,
2013-01-27 13:11:00,39.7,37.8,30.04,South,183,6.0,10.0,93,0.00,,,0.03,58,Wunderground v.1.15,2013-01-27 21:11:00,
2013-01-27 13:16:00,39.7,37.8,30.04,South,183,8.0,14.0,93,0.00,,,0.03,67,Wunderground v.1.15,2013-01-27 21:16:00,
2013-01-27 13:21:00,39.7,37.8,30.04,SSW,199,7.0,12.0,93,0.00,,,0.03,53,Wunderground v.1.15,2013-01-27 21:21:00,
2013-01-27 13:26:00,39.6,37.7,30.04,South,188,7.0,12.0,93,0.00,,,0.03,58,Wunderground v.1.15,2013-01-27 21:26:00,
2013-01-27 13:31:00,39.6,37.7,30.04,South,178,10.0,10.0,93,0.00,,,0.03,47,Wunderground v.1.15,2013-01-27 21:31:00,
2013-01-27 13:36:00,39.6,37.7,30.04,South,187,10.0,10.0,93,0.00,,,0.03,49,Wunderground v.1.15,2013-01-27 21:36:00,
2013-01-27 13:41:00,39.6,37.7,30.03,South,178,5.0,8.0,93,0.00,,,0.03,63,Wunderground v.1.15,2013-01-27 21:41:00,
2013-01-27 13:46:00,39.7,37.8,30.03,South,181,7.0,11.0,93,0.00,,,0.03,56,Wunderground v.1.15,2013-01-27 21:46:00,
2013-01-27 13:51:00,39.8,37.7,30.03,South,184,5.0,6.0,92,0.00,,,0.03,53,Wunderground v.1.15,2013-01-27 21:51:00,
2013-01-27 13:56:00,39.8,37.7,30.03,South,180,5.0,7.0,92,0.00,,,0.03,39,Wunderground v.1.15,2013-01-27 21:56:00,
2013-01-27 14:01:00,39.8,37.9,30.03,SE,146,5.0,8.0,93,0.00,,,0.03,37,Wunderground v.1.15,2013-01-27 22:01:00,
2013-01-27 14:07:00,39.8,37.9,30.03,South,182,5.0,8.0,93,0.00,,,0.03,46,Wunderground v.1.15,2013-01-27 22:07:00,
2013-01-27 14:12:00,39.8,37.9,30.03,SSW,196,6.0,9.0,93,0.00,,,0.03,54,Wunderground v.1.15,2013-01-27 22:12:00,
2013-01-27 14:17:00,39.9,38.0,30.03,South,178,9.0,12.0,93,0.00,,,0.03,42,Wunderground v.1.15,2013-01-27 22:17:00,
2013-01-27 14:22:00,39.9,38.0,30.03,South,185,7.0,9.0,93,0.00,,,0.03,39,Wunderground v.1.15,2013-01-27 22:22:00,
2013-01-27 14:27:00,39.9,38.0,30.03,South,190,5.0,9.0,93,0.00,,,0.03,53,Wunderground v.1.15,2013-01-27 22:27:00,
2013-01-27 14:32:00,39.9,38.0,30.03,South,188,6.0,8.0,93,0.00,,,0.03,69,Wunderground v.1.15,2013-01-27 22:32:00,
2013-01-27 14:37:00,39.8,37.9,30.03,SSW,205,9.0,13.0,93,0.00,,,0.04,72,Wunderground v.1.15,2013-01-27 22:37:00,
2013-01-27 14:42:00,39.7,37.8,30.03,South,184,7.0,12.0,93,0.00,,,0.04,69,Wunderground v.1.15,2013-01-27 22:42:00,
2013-01-27 14:47:00,39.6,37.7,30.03,SSW,192,9.0,12.0,93,0.00,,,0.04,63,Wunderground v.1.15,2013-01-27 22:47:00,
2013-01-27 14:52:00,39.7,37.8,30.03,South,178,8.0,8.0,93,0.00,,,0.04,63,Wunderground v.1.15,2013-01-27 22:52:00,
2013-01-27 14:57:00,39.6,37.7,30.03,South,180,8.0,15.0,93,0.00,,,0.04,62,Wunderground v.1.15,2013-01-27 22:57:00,
2013-01-27 15:02:00,39.6,37.7,30.03,South,191,8.0,9.0,93,0.00,,,0.04,53,Wunderground v.1.15,2013-01-27 23:02:00,
2013-01-27 15:07:00,39.5,37.6,30.03,South,186,10.0,13.0,93,0.00,,,0.04,49,Wunderground v.1.15,2013-01-27 23:07:00,
2013-01-27 15:12:00,39.5,37.6,30.03,South,188,8.0,12.0,93,0.00,,,0.04,53,Wunderground v.1.15,2013-01-27 23:12:00,
2013-01-27 15:17:00,39.6,37.7,30.03,South,184,5.0,13.0,93,0.00,,,0.04,54,Wunderground v.1.15,2013-01-27 23:17:00,
2013-01-27 15:22:00,39.5,37.6,30.03,SSW,203,8.0,12.0,93,0.00,,,0.04,53,Wunderground v.1.15,2013-01-27 23:22:00,
2013-01-27 15:27:00,39.6,37.7,30.03,South,185,9.0,12.0,93,0.00,,,0.04,44,Wunderground v.1.15,2013-01-27 23:27:00,
2013-01-27 15:32:00,39.6,37.7,30.03,SSW,209,5.0,11.0,93,0.00,,,0.04,46,Wunderground v.1.15,2013-01-27 23:32:00,
2013-01-27 15:37:00,39.6,37.7,30.03,South,186,9.0,12.0,93,0.00,,,0.04,40,Wunderground v.1.15,2013-01-27 23:37:00,
2013-01-27 15:42:00,39.6,37.7,30.03,South,185,7.0,11.0,93,0.00,,,0.04,37,Wunderground v.1.15,2013-01-27 23:42:00,
2013-01-27 15:47:00,39.6,37.7,30.02,SSW,198,9.0,13.0,93,0.00,,,0.04,32,Wunderground v.1.15,2013-01-27 23:47:00,
2013-01-27 15:52:00,39.6,37.7,30.03,South,185,9.0,10.0,93,0.00,,,0.04,35,Wunderground v.1.15,2013-01-27 23:52:00,
2013-01-27 15:57:00,39.6,37.7,30.02,South,178,9.0,10.0,93,0.00,,,0.04,32,Wunderground v.1.15,2013-01-27 23:57:00,
2013-01-27 16:02:00,39.5,37.6,30.03,SSW,196,7.0,10.0,93,0.00,,,0.04,28,Wunderground v.1.15,2013-01-28 00:02:00,
2013-01-27 16:07:00,39.6,37.7,30.02,SSW,200,7.0,10.0,93,0.00,,,0.04,21,Wunderground v.1.15,2013-01-28 00:07:00,
2013-01-27 16:12:00,39.5,37.6,30.02,South,188,8.0,11.0,93,0.00,,,0.04,18,Wunderground v.1.15,2013-01-28 00:12:00,
2013-01-27 16:17:00,39.5,37.6,30.02,South,186,6.0,11.0,93,0.00,,,0.04,18,Wunderground v.1.15,2013-01-28 00:17:00,
2013-01-27 16:22:00,39.5,37.4,30.02,SSW,199,5.0,8.0,92,0.00,,,0.04,14,Wunderground v.1.15,2013-01-28 00:22:00,
2013-01-27 16:27:00,39.5,37.4,30.02,South,191,6.0,9.0,92,0.00,,,0.04,11,Wunderground v.1.15,2013-01-28 00:27:00,
2013-01-27 16:32:00,39.5,37.4,30.02,South,190,7.0,7.0,92,0.00,,,0.05,7,Wunderground v.1.15,2013-01-28 00:32:00,
2013-01-27 16:37:00,39.4,37.3,30.02,SSW,206,8.0,10.0,92,0.00,,,0.05,5,Wunderground v.1.15,2013-01-28 00:37:00,
2013-01-27 16:42:00,39.4,37.3,30.02,South,173,8.0,9.0,92,0.00,,,0.05,5,Wunderground v.1.15,2013-01-28 00:42:00,
2013-01-27 16:47:00,39.4,37.3,30.02,South,187,3.0,9.0,92,0.00,,,0.05,0,Wunderground v.1.15,2013-01-28 00:47:00,
2013-01-27 16:53:00,39.3,37.2,30.02,SSW,200,5.0,7.0,92,0.00,,,0.05,0,Wunderground v.1.15,2013-01-28 00:53:00,
2013-01-27 16:58:00,39.3,37.2,30.02,SSW,194,6.0,8.0,92,0.00,,,0.05,0,Wunderground v.1.15,2013-01-28 00:58:00,
2013-01-27 17:03:00,39.3,37.2,30.02,South,189,5.0,6.0,92,0.00,,,0.05,0,Wunderground v.1.15,2013-01-28 01:03:00,
2013-01-27 17:08:00,39.2,37.1,30.02,South,188,5.0,9.0,92,0.00,,,0.05,0,Wunderground v.1.15,2013-01-28 01:08:00,
2013-01-27 17:13:00,39.2,37.1,30.01,South,183,4.0,7.0,92,0.00,,,0.05,0,Wunderground v.1.15,2013-01-28 01:13:00,
2013-01-27 17:18:00,39.2,37.1,30.01,South,183,3.0,7.0,92,0.00,,,0.05,0,Wunderground v.1.15,2013-01-28 01:18:00,
2013-01-27 17:23:00,39.1,36.7,30.01,South,178,4.0,7.0,91,0.00,,,0.06,0,Wunderground v.1.15,2013-01-28 01:23:00,
2013-01-27 17:28:00,39.1,36.7,30.01,South,178,4.0,7.0,91,0.00,,,0.06,0,Wunderground v.1.15,2013-01-28 01:28:00,
2013-01-27 17:33:00,39.1,36.7,30.01,South,178,1.0,5.0,91,0.00,,,0.06,0,Wunderground v.1.15,2013-01-28 01:33:00,
2013-01-27 17:38:00,39.0,36.6,30.01,South,188,3.0,6.0,91,0.00,,,0.06,0,Wunderground v.1.15,2013-01-28 01:38:00,
2013-01-27 17:43:00,39.1,36.7,30.01,South,188,3.0,6.0,91,0.00,,,0.06,0,Wunderground v.1.15,2013-01-28 01:43:00,
2013-01-27 17:48:00,39.1,36.7,30.01,South,179,4.0,6.0,91,0.00,,,0.06,0,Wunderground v.1.15,2013-01-28 01:48:00,
2013-01-27 17:54:00,39.0,36.6,30.01,South,180,4.0,4.0,91,0.00,,,0.06,0,Wunderground v.1.15,2013-01-28 01:54:00,
2013-01-27 17:59:00,39.0,36.6,30.01,South,177,2.0,6.0,91,0.00,,,0.06,0,Wunderground v.1.15,2013-01-28 01:59:00,
2013-01-27 18:04:00,39.0,36.6,30.01,South,177,0.0,5.0,91,0.00,,,0.06,0,Wunderground v.1.15,2013-01-28 02:04:00,
2013-01-27 18:09:00,38.9,36.2,30.01,South,176,4.0,5.0,90,0.00,,,0.06,0,Wunderground v.1.15,2013-01-28 02:09:00,
2013-01-27 18:14:00,38.9,36.2,30.01,South,176,1.0,5.0,90,0.00,,,0.06,0,Wunderground v.1.15,2013-01-28 02:14:00,
2013-01-27 18:19:00,38.9,36.2,30.01,South,176,2.0,5.0,90,0.00,,,0.06,0,Wunderground v.1.15,2013-01-28 02:19:00,
2013-01-27 18:24:00,38.9,36.2,30.01,South,176,4.0,5.0,90,0.00,,,0.06,0,Wunderground v.1.15,2013-01-28 02:24:00,
2013-01-27 18:29:00,38.9,36.2,30.01,South,176,5.0,5.0,90,0.00,,,0.06,0,Wunderground v.1.15,2013-01-28 02:29:00,
2013-01-27 18:34:00,38.9,36.2,30.01,South,188,4.0,5.0,90,0.00,,,0.06,0,Wunderground v.1.15,2013-01-28 02:34:00,
2013-01-27 18:39:00,38.9,36.2,30.01,South,184,4.0,7.0,90,0.00,,,0.06,0,Wunderground v.1.15,2013-01-28 02:39:00,
2013-01-27 18:44:00,39.0,36.3,30.01,South,183,5.0,8.0,90,0.00,,,0.06,0,Wunderground v.1.15,2013-01-28 02:44:00,
2013-01-27 18:49:00,39.0,36.3,30.01,South,175,5.0,8.0,90,0.00,,,0.06,0,Wunderground v.1.15,2013-01-28 02:49:00,
2013-01-27 18:54:00,38.9,36.2,30.01,South,178,4.0,7.0,90,0.00,,,0.06,0,Wunderground v.1.15,2013-01-28 02:54:00,
2013-01-27 18:59:00,39.0,36.3,30.01,South,169,6.0,7.0,90,0.00,,,0.06,0,Wunderground v.1.15,2013-01-28 02:59:00,
2013-01-27 19:04:00,39.0,36.6,30.01,South,174,2.0,6.0,91,0.00,,,0.06,0,Wunderground v.1.15,2013-01-28 03:04:00,
2013-01-27 19:09:00,39.0,36.6,30.01,South,180,3.0,6.0,91,0.00,,,0.06,0,Wunderground v.1.15,2013-01-28 03:09:00,
2013-01-27 19:14:00,39.0,36.6,30.01,South,190,5.0,8.0,91,0.00,,,0.06,0,Wunderground v.1.15,2013-01-28 03:14:00,
2013-01-27 19:20:00,39.0,36.6,30.01,South,174,6.0,8.0,91,0.00,,,0.06,0,Wunderground v.1.15,2013-01-28 03:20:00,
2013-01-27 19:25:00,38.9,36.8,30.01,South,176,5.0,7.0,92,0.00,,,0.06,0,Wunderground v.1.15,2013-01-28 03:25:00,
2013-01-27 19:30:00,38.9,36.8,30.01,SSW,193,4.0,7.0,92,0.00,,,0.06,0,Wunderground v.1.15,2013-01-28 03:30:00,
2013-01-27 19:35:00,38.9,36.8,30.01,South,186,6.0,8.0,92,0.00,,,0.06,0,Wunderground v.1.15,2013-01-28 03:35:00,
2013-01-27 19:40:00,38.9,36.8,30.02,SSW,194,5.0,8.0,92,0.00,,,0.06,0,Wunderground v.1.15,2013-01-28 03:40:00,
2013-01-27 19:45:00,38.8,36.7,30.02,SSW,202,5.0,7.0,92,0.00,,,0.06,0,Wunderground v.1.15,2013-01-28 03:45:00,
2013-01-27 19:50:00,38.8,36.7,30.02,South,191,4.0,7.0,92,0.00,,,0.06,0,Wunderground v.1.15,2013-01-28 03:50:00,
2013-01-27 19:55:00,38.7,36.6,30.02,South,190,5.0,6.0,92,0.00,,,0.06,0,Wunderground v.1.15,2013-01-28 03:55:00,
2013-01-27 20:00:00,38.7,36.3,30.01,South,187,3.0,6.0,91,0.00,,,0.06,0,Wunderground v.1.15,2013-01-28 04:00:00,
2013-01-27 20:05:00,38.6,36.2,30.01,South,186,4.0,7.0,91,0.00,,,0.06,0,Wunderground v.1.15,2013-01-28 04:05:00,
2013-01-27 20:10:00,38.6,36.2,30.01,South,185,5.0,7.0,91,0.00,,,0.06,0,Wunderground v.1.15,2013-01-28 04:10:00,
2013-01-27 20:15:00,38.5,36.1,30.01,South,185,5.0,5.0,91,0.00,,,0.06,0,Wunderground v.1.15,2013-01-28 04:15:00,
2013-01-27 20:20:00,38.5,36.1,30.01,South,181,4.0,7.0,91,0.00,,,0.06,0,Wunderground v.1.15,2013-01-28 04:20:00,
2013-01-27 20:25:00,38.5,36.1,30.02,South,181,4.0,5.0,91,0.00,,,0.06,0,Wunderground v.1.15,2013-01-28 04:25:00,
2013-01-27 20:30:00,38.6,36.2,30.02,South,181,3.0,6.0,91,0.00,,,0.06,0,Wunderground v.1.15,2013-01-28 04:30:00,
2013-01-27 20:35:00,38.6,36.2,30.02,South,177,4.0,6.0,91,0.00,,,0.06,0,Wunderground v.1.15,2013-01-28 04:35:00,
2013-01-27 20:40:00,38.6,36.2,30.01,South,173,1.0,6.0,91,0.00,,,0.06,0,Wunderground v.1.15,2013-01-28 04:40:00,
2013-01-27 20:45:00,38.7,36.3,30.01,South,171,4.0,6.0,91,0.00,,,0.06,0,Wunderground v.1.15,2013-01-28 04:45:00,
2013-01-27 20:50:00,38.6,36.2,30.02,South,171,2.0,6.0,91,0.00,,,0.06,0,Wunderground v.1.15,2013-01-28 04:50:00,
2013-01-27 20:55:00,38.6,36.2,30.02,South,177,4.0,5.0,91,0.00,,,0.06,0,Wunderground v.1.15,2013-01-28 04:55:00,
2013-01-27 21:01:00,38.6,36.2,30.02,South,177,2.0,3.0,91,0.00,,,0.06,0,Wunderground v.1.15,2013-01-28 05:01:00,
2013-01-27 21:03:00,38.7,36.3,30.02,South,177,4.0,4.0,91,0.00,,,0.06,0,Wunderground v.1.15,2013-01-28 05:03:00,
2013-01-27 21:08:00,38.6,36.2,30.02,South,177,2.0,5.0,91,0.00,,,0.06,0,Wunderground v.1.15,2013-01-28 05:08:00,
2013-01-27 21:13:00,38.7,36.3,30.01,South,176,1.0,4.0,91,0.00,,,0.06,0,Wunderground v.1.15,2013-01-28 05:13:00,
2013-01-27 21:18:00,38.7,36.3,30.02,South,176,1.0,4.0,91,0.00,,,0.06,0,Wunderground v.1.15,2013-01-28 05:18:00,
2013-01-27 21:23:00,38.7,36.3,30.02,South,176,2.0,4.0,91,0.00,,,0.06,0,Wunderground v.1.15,2013-01-28 05:23:00,
2013-01-27 21:28:00,38.7,36.3,30.02,South,176,5.0,6.0,91,0.00,,,0.06,0,Wunderground v.1.15,2013-01-28 05:28:00,
2013-01-27 21:34:00,38.7,36.3,30.03,South,176,2.0,5.0,91,0.00,,,0.06,0,Wunderground v.1.15,2013-01-28 05:34:00,
2013-01-27 21:39:00,38.7,36.3,30.02,South,176,6.0,6.0,91,0.00,,,0.06,0,Wunderground v.1.15,2013-01-28 05:39:00,
2013-01-27 21:44:00,38.8,36.4,30.03,South,176,5.0,5.0,91,0.00,,,0.06,0,Wunderground v.1.15,2013-01-28 05:44:00,
2013-01-27 21:49:00,38.8,36.4,30.02,South,184,4.0,7.0,91,0.00,,,0.06,0,Wunderground v.1.15,2013-01-28 05:49:00,
2013-01-27 21:54:00,38.8,36.4,30.03,SW,214,5.0,7.0,91,0.00,,,0.06,0,Wunderground v.1.15,2013-01-28 05:54:00,
2013-01-27 21:59:00,38.9,36.8,30.03,South,188,4.0,7.0,92,0.00,,,0.06,0,Wunderground v.1.15,2013-01-28 05:59:00,
2013-01-27 22:04:00,38.9,36.8,30.02,South,190,5.0,9.0,92,0.00,,,0.06,0,Wunderground v.1.15,2013-01-28 06:04:00,
2013-01-27 22:09:00,38.9,36.8,30.02,SSW,192,4.0,9.0,92,0.00,,,0.06,0,Wunderground v.1.15,2013-01-28 06:09:00,
2013-01-27 22:14:00,38.8,36.7,30.02,South,191,4.0,7.0,92,0.00,,,0.06,0,Wunderground v.1.15,2013-01-28 06:14:00,
2013-01-27 22:19:00,38.8,36.7,30.03,SSW,194,6.0,8.0,92,0.00,,,0.06,0,Wunderground v.1.15,2013-01-28 06:19:00,
2013-01-27 22:24:00,38.8,36.7,30.02,SSW,198,5.0,9.0,92,0.00,,,0.06,0,Wunderground v.1.15,2013-01-28 06:24:00,
2013-01-27 22:29:00,38.8,36.7,30.03,SSW,200,6.0,9.0,92,0.00,,,0.06,0,Wunderground v.1.15,2013-01-28 06:29:00,
2013-01-27 22:34:00,38.8,36.7,30.02,SSW,196,6.0,8.0,92,0.00,,,0.06,0,Wunderground v.1.15,2013-01-28 06:34:00,
2013-01-27 22:39:00,38.8,36.7,30.02,SSW,202,6.0,8.0,92,0.00,,,0.06,0,Wunderground v.1.15,2013-01-28 06:39:00,
2013-01-27 22:44:00,38.8,36.7,30.02,SSW,192,5.0,7.0,92,0.00,,,0.06,0,Wunderground v.1.15,2013-01-28 06:44:00,
2013-01-27 22:49:00,38.8,36.7,30.02,South,187,6.0,7.0,92,0.00,,,0.06,0,Wunderground v.1.15,2013-01-28 06:49:00,
2013-01-27 22:54:00,38.8,36.7,30.02,SSW,195,9.0,9.0,92,0.00,,,0.06,0,Wunderground v.1.15,2013-01-28 06:54:00,
2013-01-27 22:59:00,38.8,36.7,30.03,SSW,198,5.0,9.0,92,0.00,,,0.06,0,Wunderground v.1.15,2013-01-28 06:59:00,
2013-01-27 23:04:00,38.8,36.7,30.03,SSW,207,5.0,9.0,92,0.00,,,0.06,0,Wunderground v.1.15,2013-01-28 07:04:00,
2013-01-27 23:09:00,38.8,36.7,30.03,SSW,197,4.0,9.0,92,0.00,,,0.06,0,Wunderground v.1.15,2013-01-28 07:09:00,
2013-01-27 23:14:00,38.9,36.8,30.03,SSW,194,6.0,9.0,92,0.00,,,0.06,0,Wunderground v.1.15,2013-01-28 07:14:00,
2013-01-27 23:19:00,38.8,36.7,30.03,SSW,204,6.0,9.0,92,0.00,,,0.06,0,Wunderground v.1.15,2013-01-28 07:19:00,
2013-01-27 23:24:00,38.8,36.7,30.03,SSW,194,6.0,7.0,92,0.00,,,0.06,0,Wunderground v.1.15,2013-01-28 07:24:00,
2013-01-27 23:29:00,38.7,36.6,30.03,SSW,194,3.0,7.0,92,0.00,,,0.06,0,Wunderground v.1.15,2013-01-28 07:29:00,
2013-01-27 23:34:00,38.6,36.5,30.03,SSW,197,3.0,5.0,92,0.00,,,0.06,0,Wunderground v.1.15,2013-01-28 07:34:00,
2013-01-27 23:40:00,38.4,36.3,30.04,SSW,212,4.0,6.0,92,0.00,,,0.06,0,Wunderground v.1.15,2013-01-28 07:40:00,
2013-01-27 23:44:00,38.3,36.2,30.03,SSW,213,5.0,7.0,92,0.00,,,0.06,0,Wunderground v.1.15,2013-01-28 07:44:00,
2013-01-27 23:49:00,38.4,36.3,30.03,SSW,198,4.0,7.0,92,0.00,,,0.06,0,Wunderground v.1.15,2013-01-28 07:49:00,
2013-01-27 23:54:00,38.4,36.0,30.04,SW,223,5.0,5.0,91,0.00,,,0.06,0,Wunderground v.1.15,2013-01-28 07:54:00,